sat.trackr.live / text

‹ back to catalog

KUIPER-00260

NORAD 67787 · 2026-030Z

PAYLOAD ACTIVE UNKNOWN

§ Identity

Operator
Country
US
Launch date
2026-02-12
Launch site
FRGUI
Launch vehicle
Mass (kg)
RCS (m²)

External: N2YO · Heavens-Above · Gunter

§ Orbital elements

Epoch: 2026-09-19T22:53:53.328480Z

Period
97.30 min
Inclination
51.9019°
Eccentricity
0.0000736
Mean motion
14.79928281 rev/d
Perigee alt
629.0 km
Apogee alt
630.1 km
Semi-major
7,007.7 km
B*
-4.1235e-5
RAAN
56.6776°
Arg perigee
123.9976°
Mean anomaly
236.1057°
Rev number
3,409

§ Raw data

KUIPER-002601 67787U 26030Z   26262.95408945 -.00000535  00000+0 -41235-4 0  99912 67787  51.9019  56.6776 0000736 123.9976 236.1057 14.79928281 34093

JSON: /api/v1/satellites/67787 · /tle

For live sub-satellite position, see the globe view (requires WebGL).

§ Visibility from observer

Set your observer location to see the next 7 days of passes ≥ 10°. The values pass through the URL so the page stays shareable.

No JS? Fill the form by hand. The geolocation button needs JavaScript.